星链-3903 (STARLINK-3903 )

导读

STARLINK-3903是美国太空探索技术公司Starlink星链互联网卫星群中的一员,由美国于2022年5月6日发射升空,属于星链星座扩容任务的一部分。星链旨在打造全球卫星互联网系统,该卫星承担低轨卫星通信服务,助力为全球用户提供高速互联网接入服务。

Basic Information
目录编号:
52462
目录名称:
STARLINK-3903
国际标识:
2022-049M
轨道中心:
EARTH
卫星名称:
星链-3903
卫星全名:
星链-3903 (STARLINK-3903 )
卫星状态:
在轨 (已飞行1503 天)
发射日期:
2022-05-06 UTC
国别 :
美国 (US)
星等 :
--
Orbit Information
数据来源 国际轨道数据 AOE轨道数据
星历时间 2026-06-17T11:53:38+0800
11小时前
查看轨道信息
2026-06-11T17:00:00+0800
6天前
查看轨道信息
半长轴 6917.914km 6917.957km
偏心率 0.0001297 0.0000724
轨道倾角 53.160° 53.159°
近地点辐角 96.103° 118.219°
升交点赤经 332.483° 358.500°
平近点角 264.011° 109.574°
近地点 538.879km 539.319km
远地点 540.675km 540.321km
周期 95.438分钟 95.439分钟
每日圈数 15.088291 15.088152
Detailed Information
固有亮度:
5
最大亮度:
2.5
卫星平台:
Starlink v1.5
覆盖范围:
全球
运营商:
太空探索技术公司
运营商所在国:
美国
制造商(研发单位):
太空探索技术公司
制造商所在国:
美国
使用方式:
暂无
Satellite Introduction
星链(Starlink)计划是由太空探索技术公司(SpaceX)提出的一个巨型低轨卫星互联网星座项目,计划在2019年至2024年间在太空搭建由约1.2万颗卫星组成的“星链”网络,其中1584颗将部署在地球上空550千米处的近地轨道,并从2020年开始工作。该卫星仍在工作。
2D Orbit Map
3D Orbit Map
Orbit Altitude Analysis Chart
Orbit Inclination Analysis Chart
Orbit Comprehensive Analysis Chart
View Comprehensive Chart